Total_Precipitation_Accumulation
0.02 0.03 0.05 0.06 0.08 0.09 0.12 0.22 0.33 0.34 0.29 0.38 0.58 0.84 0.97 0.95 1.00 1.14 1.27 1.43 1.44 1.50 1.82 2.30 2.92 3.58 4.41 5.53 6.21 6.38 6.20 5.56 5.06 4.64 4.41 4.15 3.91 3.62 3.11 2.71 2.47 2.36 2.30 2.32
0.03 0.05 0.06 0.05 0.06 0.06 0.09 0.17 0.26 0.26 0.21 0.26 0.54 0.95 1.07 1.07 1.13 1.11 1.18 1.23 1.15 1.32 1.72 2.35 3.05 3.83 4.54 5.09 5.45 5.56 5.25 4.54 4.05 3.84 3.82 3.55 3.36 3.04 2.83 2.57 2.59 2.23 2.15 2.24
0.04 0.06 0.05 0.04 0.05 0.07 0.11 0.14 0.21 0.25 0.23 0.28 0.55 1.17 1.36 1.24 1.17 1.12 1.02 1.00 1.09 1.33 1.90 2.69 3.45 4.21 4.53 4.57 4.36 4.07 3.92 3.59 3.51 3.50 3.34 3.13 3.10 2.84 2.67 2.47 2.43 2.12 1.89 1.89
0.03 0.06 0.05 0.05 0.07 0.08 0.13 0.13 0.13 0.15 0.23 0.50 0.65 1.28 1.42 1.37 1.27 1.11 1.11 1.12 1.24 1.52 2.05 2.74 3.27 3.51 3.64 3.57 3.29 3.13 3.11 3.07 3.05 2.97 2.88 2.60 2.48 2.48 2.35 2.27 2.33 2.23 1.93 1.87
0.04 0.06 0.07 0.06 0.07 0.07 0.10 0.10 0.13 0.18 0.31 0.54 0.69 1.04 1.40 1.37 1.43 1.01 0.89 1.01 1.12 1.36 1.70 1.88 2.07 2.19 2.29 2.32 2.47 2.57 2.76 2.91 2.83 2.79 2.82 2.77 2.47 2.44 2.40 2.41 2.54 2.43 2.18 1.97
0.05 0.05 0.06 0.06 0.06 0.08 0.09 0.11 0.19 0.32 0.53 0.95 0.93 1.08 1.43 1.41 1.29 0.92 0.73 0.79 1.00 1.10 1.15 1.25 1.32 1.42 1.62 1.67 1.91 2.14 2.27 2.42 2.59 2.64 2.51 2.46 2.43 2.51 2.56 2.53 2.39 2.23 2.11 2.01
0.11 0.09 0.07 0.08 0.08 0.10 0.10 0.17 0.47 0.89 1.27 1.28 0.80 0.90 1.34 1.24 0.93 0.65 0.57 0.58 0.63 0.77 0.97 1.25 1.27 1.36 1.51 1.44 1.58 1.85 1.88 1.89 2.02 2.04 2.03 2.11 2.28 2.36 2.22 2.14 2.10 2.00 1.79 1.82
0.17 0.16 0.11 0.09 0.10 0.11 0.12 0.19 0.40 0.67 0.76 0.87 0.89 1.37 1.56 0.99 0.67 0.53 0.51 0.52 0.53 0.69 0.87 1.07 0.95 1.05 1.20 1.20 1.33 1.49 1.57 1.62 1.67 1.75 1.87 1.84 1.98 1.99 1.91 2.02 1.92 1.83 1.60 1.53
0.09 0.10 0.10 0.10 0.11 0.12 0.12 0.14 0.20 0.26 0.35 0.72 1.14 1.46 1.40 0.91 0.76 0.60 0.53 0.56 0.57 0.55 0.69 0.80 0.76 0.70 0.86 1.03 1.17 1.26 1.33 1.44 1.46 1.60 1.70 1.67 1.75 1.85 1.91 1.93 1.86 1.69 1.72 1.58
0.06 0.06 0.09 0.09 0.11 0.13 0.13 0.16 0.19 0.24 0.38 0.67 1.07 1.57 1.81 1.33 0.81 0.69 0.63 0.64 0.69 0.61 0.66 0.70 0.71 0.64 0.71 0.88 1.16 1.23 1.24 1.38 1.41 1.52 1.54 1.40 1.57 1.71 1.88 1.86 1.77 1.72 1.74 1.71
0.06 0.08 0.11 0.11 0.12 0.16 0.17 0.15 0.18 0.22 0.27 0.48 0.97 1.28 1.06 1.03 0.82 0.87 0.82 0.72 0.74 0.71 0.75 0.68 0.68 0.65 0.61 0.73 0.98 1.06 1.21 1.32 1.38 1.47 1.59 1.64 1.65 1.59 1.73 1.77 1.75 1.79 1.80 1.79
0.06 0.10 0.12 0.13 0.14 0.17 0.18 0.19 0.19 0.23 0.28 0.32 0.50 0.76 0.69 0.87 0.82 0.83 0.92 0.88 0.82 0.62 0.57 0.66 0.75 0.77 0.67 0.67 0.80 0.97 1.15 1.31 1.38 1.50 1.65 1.73 1.89 1.83 1.78 1.76 1.82 1.90 2.01 2.09
0.05 0.09 0.15 0.23 0.28 0.23 0.17 0.16 0.17 0.19 0.20 0.28 0.50 0.70 0.67 0.71 0.72 0.70 0.88 1.02 0.87 0.74 0.66 0.76 0.89 0.83 0.86 0.84 0.86 0.98 1.17 1.40 1.56 1.67 1.76 1.89 1.99 1.89 1.78 1.89 1.99 2.02 2.18 2.35
0.06 0.06 0.10 0.24 0.31 0.34 0.26 0.18 0.17 0.15 0.17 0.24 0.35 0.60 0.67 0.72 0.68 0.77 0.85 0.88 0.92 0.89 0.81 0.81 0.85 0.84 0.93 1.12 1.17 1.25 1.52 1.58 1.60 1.82 2.00 2.07 2.10 2.01 1.95 2.05 2.15 2.18 2.26 2.42
0.06 0.06 0.07 0.09 0.14 0.20 0.24 0.21 0.17 0.12 0.11 0.20 0.32 0.48 0.61 0.72 0.76 0.83 0.85 0.80 0.77 0.76 0.76 0.72 0.74 0.85 0.95 1.10 1.24 1.39 1.44 1.63 1.75 1.98 2.10 2.14 2.23 2.24 2.27 2.38 2.39 2.30 2.33 2.37
0.09 0.07 0.06 0.07 0.09 0.14 0.17 0.19 0.15 0.12 0.12 0.16 0.28 0.52 0.61 0.67 0.73 0.82 0.80 0.78 0.77 0.76 0.80 0.88 0.91 0.97 1.08 1.11 1.20 1.30 1.41 1.64 1.90 2.15 2.37 2.41 2.48 2.47 2.56 2.70 2.76 2.66 2.65 2.77
0.14 0.12 0.10 0.11 0.13 0.14 0.19 0.19 0.17 0.19 0.18 0.22 0.33 0.49 0.59 0.70 0.82 0.97 0.94 0.88 0.88 0.91 0.95 1.03 1.14 1.13 1.13 1.18 1.25 1.34 1.47 1.69 1.95 2.19 2.43 2.60 2.69 2.73 2.82 2.92 2.93 2.88 2.97 3.15
0.20 0.21 0.18 0.16 0.23 0.27 0.24 0.24 0.23 0.28 0.30 0.35 0.45 0.49 0.66 0.90 1.03 1.23 1.27 1.11 1.05 0.98 0.96 1.05 1.22 1.26 1.23 1.24 1.31 1.48 1.69 1.99 2.27 2.44 2.55 2.67 2.76 2.82 2.87 2.92 2.81 2.86 3.04 3.11
0.22 0.27 0.28 0.25 0.31 0.31 0.34 0.38 0.39 0.45 0.58 0.58 0.68 0.77 0.89 1.03 1.08 1.25 1.17 1.02 0.98 0.99 1.08 1.17 1.29 1.39 1.46 1.49 1.54 1.63 1.81 2.08 2.36 2.56 2.59 2.58 2.68 2.78 2.82 2.85 2.88 2.93 2.98 2.88
0.34 0.35 0.44 0.39 0.43 0.47 0.52 0.55 0.51 0.59 1.08 1.11 1.11 1.06 1.04 1.13 1.38 1.39 1.15 1.02 1.04 1.11 1.16 1.25 1.27 1.32 1.45 1.56 1.60 1.72 1.91 2.14 2.36 2.54 2.58 2.57 2.70 2.81 2.84 2.92 2.98 2.92 2.85 2.77
0.55 0.59 0.56 0.57 0.63 0.61 0.57 0.54 0.57 0.98 1.34 1.25 1.23 1.25 1.19 1.33 1.41 1.36 1.25 1.21 1.16 1.19 1.28 1.30 1.34 1.32 1.37 1.51 1.63 1.78 1.89 2.03 2.21 2.40 2.53 2.68 2.87 2.94 2.96 3.00 2.92 2.84 2.76 2.78
0.71 0.76 0.77 0.78 0.99 1.07 0.75 0.64 0.94 1.28 1.11 1.25 1.38 1.34 1.34 1.31 1.26 1.27 1.29 1.31 1.26 1.20 1.28 1.33 1.38 1.48 1.55 1.65 1.71 1.81 1.80 1.92 2.13 2.20 2.34 2.43 2.59 2.73 2.76 2.84 2.81 2.86 2.79 2.68
0.93 0.94 0.98 1.09 1.23 1.07 0.89 0.92 1.07 1.13 1.22 1.28 1.45 1.53 1.46 1.49 1.43 1.31 1.37 1.34 1.47 1.56 1.54 1.53 1.45 1.50 1.57 1.66 1.77 1.87 1.89 1.86 1.91 2.02 2.18 2.35 2.46 2.65 2.76 2.81 2.80 2.73 2.63 2.46
1.15 0.93 1.05 1.37 1.41 1.24 1.18 1.12 1.08 1.11 1.24 1.31 1.46 1.57 1.64 1.61 1.48 1.40 1.38 1.30 1.28 1.36 1.40 1.50 1.47 1.51 1.70 1.64 1.67 1.80 1.89 1.87 1.92 2.02 2.09 2.22 2.32 2.43 2.65 2.71 2.63 2.49 2.29 2.16
1.33 1.35 1.37 1.60 1.65 1.41 1.32 1.26 1.33 1.34 1.32 1.31 1.41 1.51 1.57 1.48 1.41 1.43 1.48 1.35 1.28 1.29 1.29 1.30 1.32 1.38 1.49 1.52 1.54 1.62 1.74 1.80 1.80 1.81 1.84 1.87 2.05 2.22 2.36 2.40 2.32 2.18 2.07 2.15
1.25 1.50 1.71 1.88 1.68 1.64 1.66 1.53 1.52 1.62 1.61 1.57 1.62 1.79 1.76 1.51 1.45 1.40 1.35 1.28 1.18 1.14 1.24 1.29 1.25 1.26 1.33 1.42 1.53 1.62 1.80 1.93 1.95 1.90 1.85 1.79 1.75 1.85 2.07 2.27 2.33 2.22 2.00 2.02